Location: Newark
(22.3060°N, 114.2134°E)
Time: 21:04:32
(UTC+00:00)

Vanguard 1 Rocket - Pass Details

Date: 08 August 2021
Orbit: 650 x 4226 km, 34.3° (Epoch: 15 September)

Event Time Altitude Azimuth Distance (km) Brightness Sun altitude
Exits shadow 19:01:31 - 173° (S) 6,357 11.4 -36.5°
Reaches altitude 10° 19:01:57 10° 172° (S) 6,338 11.4 -36.5°
Maximum altitude 19:15:50 20° 132° (SE) 6,339 11.7 -34.0°
Drops below altitude 10° 19:31:34 10° 94° (E) 7,411 12.5 -31.2°
Sets 19:39:59 0° 80° (E) 8,242 13.2 -29.6°
